• In Hungary
  • List of Countries
  • For 7 days
  • Water Temperature
  • Satellite Maps
  • Weather Map
  • News
  • Weather Widgets
  • user-avatar
    Login

    Hourly Weather Puerto Jiménez

    Today, 25 February, Sunday

    Time Temperature Precipitation Wind Pressure Humidity
    00:00 +25°C° 0.1 mm 1 mps 760 mmHg 88%
    01:00 +25°C° 0 mm 1 mps 759 mmHg 88%
    02:00 +24°C° 0 mm 1 mps 759 mmHg 88%
    03:00 +24°C° 0 mm 1 mps 759 mmHg 87%
    04:00 +24°C° 0 mm 1 mps 759 mmHg 86%
    05:00 +24°C° 0 mm 1 mps 759 mmHg 86%
    06:00 +24°C° 0 mm 1 mps 760 mmHg 85%
    07:00 +26°C° 0 mm 1 mps 760 mmHg 75%
    08:00 +29°C° 0 mm 1 mps 760 mmHg 66%
    09:00 +32°C° 0 mm 1 mps 760 mmHg 57%
    10:00 +32°C° 0 mm 1 mps 760 mmHg 54%
    11:00 +34°C° 0 mm 2 mps 760 mmHg 52%
    12:00 +35°C° 0 mm 2 mps 760 mmHg 49%
    13:00 +35°C° 0 mm 2 mps 759 mmHg 52%
    14:00 +34°C° 0 mm 2 mps 758 mmHg 55%
    15:00 +34°C° 0 mm 2 mps 758 mmHg 58%
    16:00 +31°C° 0.1 mm 2 mps 758 mmHg 66%
    17:00 +29°C° 0.1 mm 1 mps 758 mmHg 75%
    18:00 +27°C° 0.1 mm 1 mps 759 mmHg 83%
    19:00 +27°C° 0.1 mm 1 mps 759 mmHg 85%
    20:00 +26°C° 0.1 mm 1 mps 760 mmHg 87%
    21:00 +26°C° 0.1 mm 1 mps 760 mmHg 88%
    22:00 +25°C° 0 mm 1 mps 760 mmHg 88%
    23:00 +25°C° 0 mm 1 mps 760 mmHg 88%

    Tomorrow, 26 February, Monday

    Time Temperature Precipitation Wind Pressure Humidity
    00:00 +25°C° 0 mm 1 mps 760 mmHg 88%
    01:00 +25°C° 0 mm 1 mps 760 mmHg 88%
    02:00 +24°C° 0 mm 1 mps 760 mmHg 87%
    03:00 +24°C° 0 mm 1 mps 759 mmHg 86%
    04:00 +24°C° 0 mm 1 mps 759 mmHg 86%
    05:00 +24°C° 0 mm 1 mps 760 mmHg 86%
    06:00 +23°C° 0 mm 1 mps 760 mmHg 85%
    07:00 +26°C° 0 mm 1 mps 760 mmHg 76%
    08:00 +29°C° 0 mm 1 mps 761 mmHg 66%
    09:00 +31°C° 0 mm 1 mps 761 mmHg 56%
    10:00 +32°C° 0 mm 2 mps 761 mmHg 53%
    11:00 +34°C° 0 mm 2 mps 760 mmHg 49%
    12:00 +36°C° 0 mm 2 mps 760 mmHg 46%
    13:00 +35°C° 0 mm 2 mps 759 mmHg 49%
    14:00 +34°C° 0 mm 2 mps 758 mmHg 51%
    15:00 +34°C° 0 mm 2 mps 758 mmHg 54%
    16:00 +31°C° 0 mm 2 mps 758 mmHg 63%
    17:00 +29°C° 0 mm 1 mps 758 mmHg 71%
    18:00 +27°C° 0 mm 1 mps 758 mmHg 80%
    19:00 +27°C° 0 mm 1 mps 759 mmHg 82%
    20:00 +26°C° 0 mm 1 mps 760 mmHg 85%
    21:00 +26°C° 0 mm 1 mps 760 mmHg 87%
    22:00 +25°C° 0 mm 1 mps 760 mmHg 87%
    23:00 +25°C° 0 mm 1 mps 760 mmHg 88%

    Day after tomorrow, 27 February, Tuesday

    Time Temperature Precipitation Wind Pressure Humidity
    00:00 +25°C° 0 mm 1 mps 760 mmHg 88%
    01:00 +25°C° 0 mm 1 mps 759 mmHg 88%
    02:00 +24°C° 0 mm 1 mps 759 mmHg 87%
    03:00 +24°C° 0 mm 1 mps 759 mmHg 87%
    04:00 +24°C° 0 mm 1 mps 759 mmHg 86%
    05:00 +24°C° 0 mm 1 mps 759 mmHg 85%
    06:00 +24°C° 0 mm 1 mps 760 mmHg 85%
    07:00 +27°C° 0 mm 1 mps 760 mmHg 75%
    08:00 +29°C° 0 mm 1 mps 760 mmHg 65%
    09:00 +32°C° 0 mm 1 mps 761 mmHg 56%
    10:00 +33°C° 0 mm 1 mps 760 mmHg 54%
    11:00 +35°C° 0 mm 2 mps 760 mmHg 51%
    12:00 +36°C° 0 mm 2 mps 759 mmHg 49%
    13:00 +35°C° 0 mm 2 mps 758 mmHg 52%
    14:00 +34°C° 0 mm 2 mps 758 mmHg 56%
    15:00 +34°C° 0 mm 2 mps 757 mmHg 59%
    16:00 +31°C° 0.3 mm 2 mps 757 mmHg 67%
    17:00 +29°C° 0.3 mm 1 mps 757 mmHg 76%
    18:00 +27°C° 0.3 mm 1 mps 758 mmHg 84%
    19:00 +27°C° 0.1 mm 1 mps 758 mmHg 85%
    20:00 +24°C° 0.1 mm 0 mps 759 mmHg 86%
    21:00 +24°C° 0.1 mm 0 mps 760 mmHg 87%
    22:00 +23°C° 0.1 mm 0 mps 759 mmHg 87%
    23:00 +23°C° 0.1 mm 0 mps 759 mmHg 87%

    28 February, Wednesday

    Time Temperature Precipitation Wind Pressure Humidity
    00:00 +25°C° 0.1 mm 1 mps 759 mmHg 87%
    01:00 +25°C° 0.2 mm 1 mps 759 mmHg 87%
    02:00 +24°C° 0.2 mm 1 mps 758 mmHg 86%
    03:00 +24°C° 0.2 mm 1 mps 758 mmHg 86%
    04:00 +24°C° 0 mm 1 mps 758 mmHg 85%
    05:00 +24°C° 0 mm 1 mps 759 mmHg 84%
    06:00 +24°C° 0 mm 1 mps 759 mmHg 84%
    07:00 +26°C° 0 mm 1 mps 759 mmHg 74%
    08:00 +29°C° 0 mm 1 mps 760 mmHg 65%
    09:00 +32°C° 0 mm 1 mps 760 mmHg 56%
    10:00 +33°C° 0 mm 1 mps 759 mmHg 52%
    11:00 +35°C° 0 mm 2 mps 759 mmHg 49%
    12:00 +36°C° 0 mm 2 mps 758 mmHg 45%
    13:00 +35°C° 0 mm 2 mps 758 mmHg 49%
    14:00 +34°C° 0 mm 2 mps 757 mmHg 53%
    15:00 +34°C° 0 mm 2 mps 756 mmHg 57%
    16:00 +31°C° 0.2 mm 2 mps 757 mmHg 65%
    17:00 +29°C° 0.2 mm 1 mps 757 mmHg 74%
    18:00 +27°C° 0.2 mm 1 mps 758 mmHg 82%
    19:00 +27°C° 0 mm 1 mps 758 mmHg 84%
    20:00 +26°C° 0 mm 1 mps 759 mmHg 86%
    21:00 +24°C° 0 mm 0 mps 759 mmHg 87%
    22:00 +24°C° 0 mm 0 mps 759 mmHg 88%
    23:00 +25°C° 0 mm 1 mps 759 mmHg 88%

    1 March, Thursday

    Time Temperature Precipitation Wind Pressure Humidity
    00:00 +25°C° 0 mm 1 mps 759 mmHg 89%
    01:00 +25°C° 0.1 mm 1 mps 758 mmHg 89%
    02:00 +25°C° 0.1 mm 1 mps 758 mmHg 89%
    03:00 +24°C° 0.1 mm 1 mps 758 mmHg 88%
    04:00 +24°C° 0.1 mm 1 mps 758 mmHg 88%
    05:00 +24°C° 0.1 mm 1 mps 758 mmHg 87%
    06:00 +24°C° 0.1 mm 1 mps 759 mmHg 86%
    07:00 +27°C° 0.1 mm 1 mps 759 mmHg 76%
    08:00 +30°C° 0.1 mm 1 mps 759 mmHg 66%
    09:00 +32°C° 0.1 mm 1 mps 760 mmHg 56%
    10:00 +33°C° 0 mm 1 mps 759 mmHg 54%
    11:00 +35°C° 0 mm 2 mps 759 mmHg 51%
    12:00 +35°C° 0 mm 2 mps 758 mmHg 49%
    13:00 +35°C° 0 mm 2 mps 758 mmHg 52%
    14:00 +34°C° 0 mm 2 mps 757 mmHg 55%
    15:00 +34°C° 0 mm 2 mps 757 mmHg 58%
    16:00 +31°C° 0.1 mm 2 mps 757 mmHg 66%
    17:00 +29°C° 0.1 mm 1 mps 757 mmHg 74%
    18:00 +27°C° 0.1 mm 1 mps 758 mmHg 83%
    19:00 +27°C° 0 mm 1 mps 758 mmHg 84%
    20:00 +24°C° 0 mm 0 mps 759 mmHg 86%
    21:00 +24°C° 0 mm 0 mps 759 mmHg 87%
    22:00 +26°C° 0 mm 1 mps 759 mmHg 88%
    23:00 +25°C° 0 mm 1 mps 759 mmHg 88%

    2 March, Friday

    Time Temperature Precipitation Wind Pressure Humidity
    00:00 +25°C° 0 mm 1 mps 759 mmHg 88%
    01:00 +25°C° 0.1 mm 1 mps 758 mmHg 88%
    02:00 +25°C° 0.1 mm 1 mps 758 mmHg 88%
    03:00 +25°C° 0.1 mm 1 mps 758 mmHg 88%
    04:00 +24°C° 0.1 mm 1 mps 758 mmHg 87%
    05:00 +24°C° 0.1 mm 1 mps 759 mmHg 86%
    06:00 +24°C° 0.1 mm 1 mps 759 mmHg 85%
    07:00 +27°C° 0 mm 1 mps 759 mmHg 76%
    08:00 +30°C° 0 mm 1 mps 759 mmHg 66%
    09:00 +32°C° 0 mm 1 mps 760 mmHg 56%
    10:00 +33°C° 0 mm 1 mps 759 mmHg 53%
    11:00 +35°C° 0 mm 2 mps 759 mmHg 51%
    12:00 +35°C° 0 mm 2 mps 758 mmHg 48%
    13:00 +35°C° 0 mm 2 mps 757 mmHg 51%
    14:00 +34°C° 0 mm 2 mps 757 mmHg 54%
    15:00 +34°C° 0 mm 2 mps 756 mmHg 56%
    16:00 +31°C° 0 mm 2 mps 756 mmHg 64%
    17:00 +29°C° 0 mm 2 mps 757 mmHg 72%
    18:00 +28°C° 0 mm 1 mps 757 mmHg 79%
    19:00 +27°C° 0 mm 1 mps 757 mmHg 82%
    20:00 +27°C° 0 mm 1 mps 758 mmHg 84%
    21:00 +26°C° 0 mm 1 mps 759 mmHg 86%
    22:00 +26°C° 0 mm 1 mps 758 mmHg 86%
    23:00 +26°C° 0 mm 1 mps 758 mmHg 87%
    Show more